Prague, Czech Republic

9:43 AM CEST on August 29, 2016 (GMT +0200)
Ruzyne

Weather History for LKPR - December, 2013

Change the Weather History Date:

Thursday, December 5, 2013

  Actual Average Record
Temperature  
Mean Temperature 35 °F -  
Max Temperature 39 °F 35 °F 55 °F (2006)
Min Temperature 31 °F 25 °F 8 °F (2010)
Degree Days  
Heating Degree Days 30    
Moisture  
Dew Point 30 °F    
Average Humidity 81    
Maximum Humidity 93    
Minimum Humidity 63    
Precipitation  
Precipitation 0.04 in 0.03 in - ()
Sea Level Pressure  
Sea Level Pressure 30.00 in    
Wind  
Wind Speed 18 mph ()    
Max Wind Speed 37 mph    
Max Gust Speed 51 mph    
Visibility 6.7 miles    
Events Rain    
Averages and records for this station are not official NWS values.
T = Trace of Precipitation, MM = Missing Value Source: Averaged Metar Reports

Daily Weather History Graph

Daily Weather History Graph

Search for Another Location

Airport or City:

Trip Planner

Search our weather history database for the weather conditions in past years. The results will help you decide how hot, cold, wet, or windy it might be!

Date:

Astronomy

Dec. 05, 2013 Rise Set
Actual Time 7:45 AM CET 4:01 PM CET
Civil Twilight 7:07 AM CET 4:39 PM CET
Nautical Twilight 6:26 AM CET 5:20 PM CET
Astronomical Twilight 5:47 AM CET 6:00 PM CET
Moon 9:44 AM CET (12/5) 7:10 PM CET (12/5)
Length of Visible Light 9h 32m
Length of Day
8h 16m
Waxing Crescent, 9% of the Moon is Illuminated
Dec 5
Waxing Crescent
Dec 9
First Quarter
Dec 17
Full
Dec 25
Last Quarter
Jan 1
New

Hourly Weather History & Observations

Time (CET) Temp. Windchill Dew Point Humidity Pressure Visibility Wind Dir Wind Speed Gust Speed Precip Events Conditions
12:00 AM 33.8 °F 22.8 °F 30.2 °F 87% 30.21 in 6.2 mi WSW 18.4 mph - N/A   Mostly Cloudy
12:30 AM 33.8 °F 23.5 °F 30.2 °F 87% 30.21 in 6.2 mi WSW 16.1 mph - N/A   Mostly Cloudy
1:00 AM 34 °F - 31 °F 82% 30.30 in 12 mi WSW 15.7 mph - -   Partly Cloudy
1:00 AM 33.8 °F 24.3 °F 30.2 °F 87% 30.21 in 6.2 mi WSW 13.8 mph - N/A   Mostly Cloudy
1:30 AM 33.8 °F 24.3 °F 30.2 °F 87% 30.24 in 6.2 mi WSW 13.8 mph - N/A   Mostly Cloudy
2:00 AM 33.8 °F 25.3 °F 30.2 °F 87% 30.24 in 6.2 mi WSW 11.5 mph - N/A   Mostly Cloudy
2:30 AM 33.8 °F 25.8 °F 30.2 °F 87% 30.24 in 6.2 mi WSW 10.4 mph - N/A   Mostly Cloudy
3:00 AM 33.8 °F 25.8 °F 30.2 °F 87% 30.24 in 6.2 mi WSW 10.4 mph - N/A   Mostly Cloudy
3:30 AM 33.8 °F 25.8 °F 30.2 °F 87% 30.24 in 6.2 mi WSW 10.4 mph - N/A   Scattered Clouds
4:00 AM 33.8 °F 25.8 °F 30.2 °F 87% 30.27 in 6.2 mi WSW 10.4 mph - N/A   Mostly Cloudy
4:30 AM 33.8 °F 24.8 °F 30.2 °F 87% 30.27 in 6.2 mi SW 12.7 mph - N/A   Mostly Cloudy
5:00 AM 33.8 °F 25.3 °F 30.2 °F 87% 30.27 in 6.2 mi SW 11.5 mph - N/A   Scattered Clouds
5:30 AM 33.8 °F 24.8 °F 30.2 °F 87% 30.24 in 6.2 mi WSW 12.7 mph - N/A   Scattered Clouds
6:00 AM 32.0 °F 22.5 °F 30.2 °F 93% 30.24 in 6.2 mi SW 12.7 mph - N/A   Mostly Cloudy
6:30 AM 32.0 °F 22.5 °F 30.2 °F 93% 30.27 in 6.2 mi WSW 12.7 mph - N/A   Mostly Cloudy
7:00 AM 33 °F - 30 °F 85% 30.33 in 12 mi WSW 13.4 mph - -   Mostly Cloudy
7:00 AM 33.8 °F 24.8 °F 30.2 °F 87% 30.24 in 6.2 mi WSW 12.7 mph - N/A   Mostly Cloudy
7:30 AM 33.8 °F 24.3 °F 30.2 °F 87% 30.24 in 6.2 mi SW 13.8 mph - N/A   Mostly Cloudy
8:00 AM 32.0 °F 23.0 °F 30.2 °F 93% 30.24 in 6.2 mi SW 11.5 mph - N/A   Mostly Cloudy
8:30 AM 32.0 °F 23.0 °F 28.4 °F 87% 30.24 in 6.2 mi SW 11.5 mph - N/A   Scattered Clouds
9:00 AM 32.0 °F 23.0 °F 30.2 °F 93% 30.24 in 6.2 mi SSW 11.5 mph - N/A   Partly Cloudy
9:30 AM 33.8 °F 25.3 °F 30.2 °F 87% 30.24 in 6.2 mi SSW 11.5 mph - N/A   Partly Cloudy
10:00 AM 33.8 °F 24.8 °F 30.2 °F 87% 30.24 in 6.2 mi SW 12.7 mph - N/A   Partly Cloudy
10:30 AM 35.6 °F 25.5 °F 30.2 °F 81% 30.21 in 6.2 mi SW 17.3 mph - N/A   Partly Cloudy
11:00 AM 35.6 °F 25.2 °F 30.2 °F 81% 30.18 in 6.2 mi SW 18.4 mph - N/A   Mostly Cloudy
11:30 AM 35.6 °F 24.8 °F 28.4 °F 75% 30.15 in 6.2 mi SW 19.6 mph - N/A   Mostly Cloudy
12:00 PM 35.6 °F 24.8 °F 26.6 °F 70% 30.12 in 6.2 mi SW 19.6 mph - N/A   Scattered Clouds
12:30 PM 35.6 °F 26.2 °F 28.4 °F 75% 30.12 in 6.2 mi SW 15.0 mph - N/A   Mostly Cloudy
1:00 PM 36 °F - 28 °F 64% 30.14 in 16 mi WSW 20.1 mph - -   Mostly Cloudy
1:00 PM 35.6 °F 24.5 °F 28.4 °F 75% 30.06 in 6.2 mi WSW 20.7 mph - N/A   Mostly Cloudy
1:30 PM 35.6 °F 23.7 °F 28.4 °F 75% 30.06 in 6.2 mi SW 24.2 mph - N/A   Mostly Cloudy
2:00 PM 35.6 °F 23.7 °F 28.4 °F 75% 30.04 in 6.2 mi SW 24.2 mph - N/A   Mostly Cloudy
2:30 PM 35.6 °F 23.2 °F 28.4 °F 75% 29.98 in 6.2 mi SW 26.5 mph 41.4 mph N/A   Scattered Clouds
3:00 PM 35.6 °F 22.3 °F 28.4 °F 75% 29.95 in 6.2 mi SW 31.1 mph - N/A   Scattered Clouds
3:30 PM 35.6 °F 23.7 °F 28.4 °F 75% 29.92 in 6.2 mi SW 24.2 mph 35.7 mph N/A   Mostly Cloudy
4:00 PM 35.6 °F 24.5 °F 28.4 °F 75% 29.89 in 6.2 mi SW 20.7 mph 34.5 mph N/A   Mostly Cloudy
4:30 PM 37.4 °F 25.9 °F 30.2 °F 75% 29.86 in 6.2 mi SW 25.3 mph 36.8 mph N/A   Mostly Cloudy
5:00 PM 37.4 °F 24.6 °F 30.2 °F 75% 29.80 in 6.2 mi SW 32.2 mph 44.9 mph N/A   Scattered Clouds
5:30 PM 37.4 °F 25.6 °F 30.2 °F 75% 29.77 in 6.2 mi SW 26.5 mph 38.0 mph N/A   Scattered Clouds
6:00 PM 37.4 °F 25.4 °F 30.2 °F 75% 29.74 in 6.2 mi SW 27.6 mph 39.1 mph N/A   Scattered Clouds
6:30 PM 37.4 °F 23.8 °F 30.2 °F 75% 29.71 in 6.2 mi SW 36.8 mph 49.5 mph N/A   Scattered Clouds
6:47 PM 39.2 °F 26.3 °F 30.2 °F 70% 29.68 in 6.2 mi SW 36.8 mph 50.6 mph N/A   Scattered Clouds
7:00 PM 39 °F - 31 °F 63% 29.74 in 16 mi SW 33.6 mph - -   Overcast
7:00 PM 39.2 °F 26.3 °F 30.2 °F 70% 29.68 in 6.2 mi SW 36.8 mph 50.6 mph N/A   Scattered Clouds
7:30 PM 39.2 °F 26.3 °F 30.2 °F 70% 29.68 in 6.2 mi SW 36.8 mph 49.5 mph N/A   Scattered Clouds
7:40 PM 39.2 °F 26.6 °F 30.2 °F 70% 29.68 in 6.2 mi SW 34.5 mph 47.2 mph N/A   Scattered Clouds
7:51 PM 39.2 °F 26.6 °F 30.2 °F 70% 29.65 in 6.2 mi WSW 34.5 mph 47.2 mph N/A Rain Light Rain
8:00 PM 39.2 °F 26.6 °F 32.0 °F 75% 29.68 in 6.2 mi WSW 34.5 mph - N/A Rain Light Rain
8:30 PM 37.4 °F 24.2 °F 32.0 °F 81% 29.65 in 6.2 mi SW 34.5 mph - N/A Rain Light Rain
9:00 PM 37.4 °F 24.0 °F 33.8 °F 87% 29.62 in 6.2 mi SW 35.7 mph 47.2 mph N/A Rain Light Rain
9:30 PM 37.4 °F 24.0 °F 32.0 °F 81% 29.62 in 6.2 mi WSW 35.7 mph - N/A Rain Light Rain
9:54 PM 37.4 °F 24.2 °F 33.8 °F 87% 29.62 in 5.0 mi WSW 34.5 mph - N/A Rain Rain
10:00 PM 37.4 °F 24.2 °F 33.8 °F 87% 29.62 in 6.2 mi WSW 34.5 mph - N/A Rain Light Rain
10:30 PM 37.4 °F 24.8 °F 33.8 °F 87% 29.62 in 6.2 mi WSW 31.1 mph - N/A Rain Light Rain
11:00 PM 37.4 °F 25.2 °F 35.6 °F 93% 29.62 in 6.2 mi WSW 28.8 mph - N/A Rain Light Rain
11:30 PM 37.4 °F 25.4 °F 35.6 °F 93% 29.59 in 6.2 mi WSW 27.6 mph 39.1 mph N/A Rain Light Rain
11:50 PM 37.4 °F 25.9 °F 35.6 °F 93% 29.62 in 5.0 mi West 25.3 mph - N/A Rain Rain